This is the latest recevied weather packets stored in our database for station/object KO4T-4. If no packets are shown the sender has not sent any weather packets the latest 10 day(s).
| Time | Temp. | Humidity | Pressure | Rain* | Wind** | Luminosity | Snow |
|---|---|---|---|---|---|---|---|
| 1777664703 | 21.11° C | 46% | 1011.9 hPa | 0 mm | - | - | - |
| 1777664404 | 21.11° C | 45% | 1012.1 hPa | 0 mm | - | - | - |
| 1777664104 | 21.11° C | 45% | 1012.1 hPa | 0 mm | - | - | - |
| 1777663803 | 21.11° C | 46% | 1012.2 hPa | 0 mm | - | - | - |
| 1777663503 | 21.67° C | 45% | 1012.2 hPa | 0 mm | - | - | - |
| 1777663204 | 21.67° C | 44% | 1012.2 hPa | 0 mm | - | - | - |
| 1777662904 | 21.11° C | 45% | 1012.4 hPa | 0 mm | - | - | - |
| 1777662604 | 20.56° C | 47% | 1012.4 hPa | 0 mm | - | - | - |
| 1777662303 | 20° C | 43% | 1012.5 hPa | 0 mm | - | - | - |
| 1777662003 | 20° C | 45% | 1012.6 hPa | 0 mm | - | - | - |
| 1777661704 | 20° C | 43% | 1012.8 hPa | 0 mm | - | - | - |
| 1777661404 | 20° C | 43% | 1012.8 hPa | 0 mm | - | - | - |
| 1777661103 | 20° C | 43% | 1012.9 hPa | 0 mm | - | - | - |
| 1777660804 | 20° C | 44% | 1013 hPa | 0 mm | - | - | - |
| 1777660504 | 19.44° C | 47% | 1013 hPa | 0 mm | - | - | - |
| 1777660204 | 19.44° C | 45% | 1013 hPa | 0 mm | - | - | - |
| 1777659903 | 18.89° C | 45% | 1013.1 hPa | 0 mm | - | - | - |
| 1777659604 | 18.89° C | 46% | 1013.1 hPa | 0 mm | - | - | - |
| 1777659304 | 19.44° C | 44% | 1013.1 hPa | 0 mm | - | - | - |
| 1777659003 | 18.89° C | 44% | 1013.2 hPa | 0 mm | - | - | - |
| 1777658704 | 20° C | 44% | 1013.3 hPa | 0 mm | - | - | - |
| 1777658404 | 19.44° C | 43% | 1013.5 hPa | 0 mm | - | - | - |
| 1777658104 | 19.44° C | 44% | 1013.5 hPa | 0 mm | - | - | - |
| 1777657804 | 20.56° C | 43% | 1013.5 hPa | 0 mm | - | - | - |
| 1777657504 | 20.56° C | 43% | 1013.7 hPa | 0 mm | - | - | - |
* Rain latest hour (hover to see other rain measurements)
** Current wind speed in m/s (hover to see current wind gust speed)